WALDBURG Weather Reports


time (UTC)temp
C
wind
direction
speed
KPH
gust
KPH
rain 1hr
cm
rain 24hr
cm
rain mn
cm
humidity
%
barometer
mb
20260505053211 8 98 6.4 0.0 0.00 0.00 0.00 95 1007.2
20260505050211 8 40 6.4 0.0 0.00 0.00 0.00 95 1007.2
20260505040211 7 69 12.9 0.0 0.00 0.00 0.00 94 1007.3
20260505033211 7 53 9.7 0.0 0.00 0.00 0.00 94 1007.5
20260505030213 8 44 4.8 0.0 0.00 0.00 0.00 94 1007.7
20260505023211 8 69 3.2 0.0 0.00 0.00 0.00 92 1008.0
20260505020211 8 53 8.0 0.0 0.00 0.00 0.00 91 1008.1
20260505013211 9 147 0.0 0.0 0.00 0.00 0.00 92 1008.3
20260505010211 9 248 0.0 0.0 0.00 0.00 0.00 90 1008.8
20260505003208 10 248 3.2 0.0 0.00 0.00 0.00 90 1009.2
20260505000211 10 211 4.8 0.0 0.00 0.00 0.00 88 1009.2
20260504233209 10 201 3.2 0.0 0.00 0.00 0.00 87 1009.4
20260504230210 10 212 6.4 0.0 0.00 0.00 0.00 84 1009.7
20260504223215 11 201 4.8 0.0 0.00 0.00 0.00 82 1010.1
20260504220209 11 219 4.8 0.0 0.00 0.00 0.00 78 1010.1
20260504213209 12 197 8.0 0.0 0.00 0.00 0.00 73 1010.3
20260504210209 13 241 4.8 0.0 0.00 0.00 0.00 62 1010.1
20260504203209 15 259 3.2 0.0 0.00 0.00 0.00 53 1010.1
20260504200209 15 283 4.8 0.0 0.00 0.00 0.00 52 1009.9
20260504193209 15 42 4.8 0.0 0.00 0.00 0.00 55 1009.6
20260504190209 15 59 11.3 0.0 0.00 0.00 0.00 53 1009.4
20260504183209 17 269 11.3 0.0 0.00 0.00 0.00 46 1009.6
20260504180214 17 260 17.7 0.0 0.00 0.00 0.00 50 1009.8
20260504173209 18 256 20.9 0.0 0.00 0.00 0.00 48 1009.9
20260504170210 18 256 11.3 0.0 0.00 0.00 0.00 45 1009.7
20260504160210 20 274 14.5 0.0 0.00 0.00 0.00 40 1009.4
20260504150210 21 196 1.6 0.0 0.00 0.00 0.00 34 1009.2
20260504140209 22 196 1.6 0.0 0.00 0.00 0.00 34 1009.4
20260504130215 23 248 11.3 0.0 0.00 0.00 0.00 34 1009.8
20260504120210 22 71 8.0 0.0 0.00 0.00 0.00 35 1010.2
20260504110210 21 71 8.0 0.0 0.00 0.00 0.00 40 1010.6
20260504100212 21 71 16.1 0.0 0.00 0.00 0.00 45 1011.0
20260504080210 17 86 11.3 0.0 0.00 0.00 0.00 56 1012.2
20260504070212 13 51 0.0 0.0 0.00 0.00 0.00 71 1012.4
20260504060212 12 32 9.7 0.0 0.00 0.00 0.00 75 1012.2